Location: Unspecified
(0.0000°N, 0.0000°E)
Time: 04:47:32
(UTC+00:00)

Vanguard 3 - Pass Details

Date: 13 December 2017
Orbit: 508 x 3264 km, 33.4° (Epoch: 15 January)

Event Time Altitude Azimuth Distance (km) Brightness Sun altitude
Rises 07:50:48 0° 232° (SW) 6,512 11.5 26.6°
Reaches altitude 10° 07:55:46 10° 231° (SW) 5,115 11.1 27.7°
Maximum altitude 08:09:17 78° 146° (SE) 1,589 9.4 30.7°
Drops below altitude 10° 08:16:33 10° 60° (ENE) 2,892 10.5 32.3°
Sets 08:18:37 0° 59° (ENE) 3,599 10.8 32.8°
